Location: Kuala Lumpur International
(3.1298°N, 101.5524°E)
Time: 03:34:21
(UTC+00:00)

ARIANE 6 FM1 Upper Stage - Pass Details

Date: 05 August 2024
Orbit: 567 x 594 km, 62.0° (Epoch: 10 September)

Event Time Altitude Azimuth Distance (km) Brightness Sun altitude
Rises 12:14:48 0° 348° (NNW) 2,814 6.7 -12.2°
Reaches altitude 10° 12:17:10 10° 356° (N) 1,912 5.7 -12.8°
Maximum altitude 12:21:12 38° 65° (ENE) 898 3.3 -13.7°
Enters shadow 12:23:20 23° 118° (ESE) 1,268 3.8 -14.2°
